This demonstration page uses our WeatherBlox Daily Observations layout. Learn more.

39.29038, -76.61219

Hourly Observations for May 24, 2019

Temp ( °F °C ) Dew Point ( °F °C ) Humidity (%) Winds ( mph kmh ) Pressure ( in mb ) Visibility ( mi km ) Precip ( " mm )
12:54 am 00:54 undefined 73 22.8 68 20 84 84 undefined N/A 29.92 1013 N/A 0 0
1:54 am 01:54 undefined 72 22.2 68 20 87 87 undefined N/A 29.91 1013 N/A 0 0
2:54 am 02:54 undefined 72 22.2 67 19.4 84 84 undefined N/A 29.9 1012 N/A 0 0
3:54 am 03:54 undefined 73 22.8 65 18.3 76 76 undefined N/A 29.89 1012 N/A 0 0
4:54 am 04:54 undefined 73 22.8 64 17.8 74 74 undefined N/A 29.92 1013 N/A 0 0
5:54 am 05:54 undefined 73 22.8 59 15 62 62 undefined N/A 29.94 1014 N/A 0 0
6:54 am 06:54 undefined 73 22.8 51 10.6 46 46 undefined N/A 29.98 1015 N/A 0 0
7:54 am 07:54 undefined 74 23.3 50 10 43 43 undefined N/A 30 1016 N/A 0 0
8:54 am 08:54 undefined 73 22.8 49 9.4 43 43 undefined N/A 30.02 1017 N/A 0 0
9:54 am 09:54 undefined 76 24.4 50 10 40 40 undefined N/A 30.02 1017 N/A 0 0
10:54 am 10:54 undefined 77 25 48 8.9 36 36 undefined N/A 30.01 1016 N/A 0 0
11:54 am 11:54 undefined 79 26.1 48 8.9 34 34 undefined N/A 30.01 1016 N/A 0 0
12:54 pm 12:54 undefined 80 26.7 48 8.9 33 33 undefined N/A 30.01 1016 N/A 0 0
1:54 pm 13:54 undefined 81 27.2 47 8.3 30 30 undefined N/A 30.01 1016 N/A 0 0
2:54 pm 14:54 undefined 82 27.8 48 8.9 31 31 undefined N/A 30.01 1016 N/A 0 0
3:54 pm 15:54 undefined 83 28.3 47 8.3 28 28 undefined N/A 30.01 1016 N/A 0 0
4:54 pm 16:54 undefined 83 28.3 47 8.3 28 28 undefined N/A 30.01 1016 N/A 0 0
5:54 pm 17:54 undefined 82 27.8 48 8.9 31 31 undefined N/A 30.03 1017 N/A 0 0
6:54 pm 18:54 undefined 81 27.2 49 9.4 33 33 undefined N/A 30.05 1018 N/A 0 0
8:54 pm 20:54 undefined 78 25.6 50 10 37 37 undefined N/A 30.07 1018 N/A 0 0
9:54 pm 21:54 undefined 76 24.4 50 10 40 40 undefined N/A 30.08 1019 N/A 0 0
10:54 pm 22:54 undefined 75 23.9 51 10.6 43 43 undefined N/A 30.09 1019 N/A 0 0
11:54 pm 23:54 undefined 74 23.3 51 10.6 45 45 undefined N/A 30.09 1019 N/A 0 0

Powered by AerisWeather